Simultaneous Nadir Overpasses (SNOs) Predictions

Prediction of SNOs between AQUA and METOP-A Satellite Orbit:

Table of predicted SNOs for the next 14.0 days since TLE Epoch: 3/28/2015
Index Date (AQUA) Time (AQUA) Lat,Lon (AQUA) SZA (AQUA ) Date (METOP-A) Time (METOP-A) Lat,Lon (METOP-A) SZA (METOP-A ) Distance(km) Time Diff (sec)
1 03/30/2015 14:11:16 -73.81, 141.67 109.96 03/30/2015 14:10:08 -73.82, 141.64 109.93 1.71 68
2 03/30/2015 15:00:45 73.88, -50.86 70.11 03/30/2015 15:00:46 73.89, -50.86 70.12 0.89 1
3 03/30/2015 15:50:13 -74.01, 116.50 109.77 03/30/2015 15:51:26 -74.00, 116.72 109.80 6.85 73
4 04/02/2015 09:45:33 -73.84,-151.96 111.02 04/02/2015 09:44:29 -73.82,-151.95 111.03 1.40 64
5 04/02/2015 10:35:02 73.92, 15.50 69.05 04/02/2015 10:35:07 73.89, 15.54 69.03 3.21 5
6 04/02/2015 11:24:33 -74.19,-177.48 110.67 04/02/2015 11:25:43 -74.19,-176.38 110.71 33.39 70
7 04/05/2015 05:19:48 -73.82, -85.48 112.12 04/05/2015 05:18:50 -73.81, -85.56 112.12 2.53 58
8 04/05/2015 06:09:17 73.91, 81.96 67.96 04/05/2015 06:09:27 73.93, 82.04 67.98 3.41 10
9 04/05/2015 06:58:52 -74.38,-111.50 111.54 04/05/2015 07:00:00 -74.38,-109.50 111.62 59.94 68
10 04/08/2015 00:54:01 -73.82, -19.03 113.20 04/08/2015 00:53:09 -73.85, -19.08 113.16 3.39 52
11 04/08/2015 01:43:30 73.91, 148.40 66.89 04/08/2015 01:43:47 73.91, 148.40 66.89 0.44 17
12 04/08/2015 02:33:10 -74.64, -45.67 112.34 04/08/2015 02:34:15 -74.61, -42.50 112.48 93.66 65
13 04/10/2015 20:28:15 -73.88, 47.28 114.19 04/10/2015 20:27:29 -73.87, 47.38 114.19 3.23 46
14 04/10/2015 21:17:43 73.92,-145.18 65.86 04/10/2015 21:18:07 73.92,-145.14 65.85 1.24 24




NCC Satellite Simultaneous Nadir Overpasses (SNOs) Prediction Service
